Voltar ao catálogo

CZ-2C R/B

AtivoLEO
NORAD 42948·ROCKET BODY·🇨🇳 China

Lançado Sep 29, 2017 de Xichang Satellite Launch Center

Loading…

Próximas Passagens (próximas 24 horas)

TLE

AtualizadoSource: Space-Track

Época: Sep 14, 2026, 10:55 UTC

1 42948U 17058D   26257.45509317  .00000886  00000-0  97861-4 0  9991
2 42948  34.9254 178.3091 0059333 312.2302  47.3375 14.86544060485522

Acompanhe CZ-2C R/B em tempo real com AllMySat

Download on the App Store